When you browse on this site, cookies collect data to enhance your experience and personalize the content and advertising you see.
Visit our Privacy Policy to learn more. By continuing to use the site, you agree to this use of cookies and data.
  • In Sweden
  • List of Countries
  • For 7 days
  • Water Temperature
  • Satellite Maps
  • Weather Map
  • Weather Widgets
  • user-avatar
    Login

    Hourly Weather Czerniewiczki

    Today, 27 May, Monday

    Time Temperature Precipitation Wind Pressure Humidity
    00:00 +13°C° 0 mm 3 mps 748 mmHg 85%
    01:00 +13°C° 0 mm 3 mps 748 mmHg 86%
    02:00 +12°C° 0 mm 3 mps 748 mmHg 87%
    03:00 +12°C° 0 mm 3 mps 748 mmHg 88%
    04:00 +12°C° 0 mm 3 mps 747 mmHg 89%
    05:00 +14°C° 0 mm 4 mps 747 mmHg 85%
    06:00 +17°C° 0 mm 4 mps 747 mmHg 80%
    07:00 +17°C° 0 mm 5 mps 747 mmHg 75%
    08:00 +20°C° 0 mm 5 mps 747 mmHg 69%
    09:00 +21°C° 0 mm 6 mps 747 mmHg 63%
    10:00 +23°C° 0 mm 6 mps 747 mmHg 57%
    11:00 +23°C° 0 mm 6 mps 747 mmHg 56%
    12:00 +24°C° 0 mm 6 mps 747 mmHg 54%
    13:00 +24°C° 0 mm 6 mps 747 mmHg 52%
    14:00 +25°C° 0.1 mm 5 mps 746 mmHg 53%
    15:00 +25°C° 0.1 mm 5 mps 746 mmHg 54%
    16:00 +25°C° 0.1 mm 4 mps 746 mmHg 55%
    17:00 +24°C° 0 mm 3 mps 746 mmHg 62%
    18:00 +21°C° 0 mm 2 mps 746 mmHg 69%
    19:00 +21°C° 0 mm 1 mps 746 mmHg 76%
    20:00 +20°C° 0 mm 1 mps 746 mmHg 79%
    21:00 +19°C° 0 mm 1 mps 746 mmHg 82%
    22:00 +16°C° 0 mm 2 mps 746 mmHg 85%
    23:00 +17°C° 0 mm 2 mps 746 mmHg 85%

    Tomorrow, 28 May, Tuesday

    Time Temperature Precipitation Wind Pressure Humidity
    00:00 +17°C° 0 mm 2 mps 745 mmHg 85%
    01:00 +17°C° 0 mm 2 mps 745 mmHg 85%
    02:00 +17°C° 1.2 mm 2 mps 744 mmHg 89%
    03:00 +16°C° 1.2 mm 2 mps 744 mmHg 92%
    04:00 +16°C° 1.2 mm 2 mps 744 mmHg 95%
    05:00 +17°C° 2.6 mm 3 mps 743 mmHg 94%
    06:00 +17°C° 2.6 mm 4 mps 743 mmHg 93%
    07:00 +16°C° 2.6 mm 5 mps 743 mmHg 92%
    08:00 +17°C° 0.1 mm 5 mps 743 mmHg 89%
    09:00 +19°C° 0.1 mm 6 mps 743 mmHg 85%
    10:00 +19°C° 0.1 mm 6 mps 743 mmHg 82%
    11:00 +19°C° 0.3 mm 5 mps 743 mmHg 83%
    12:00 +19°C° 0.3 mm 4 mps 743 mmHg 84%
    13:00 +18°C° 0.3 mm 4 mps 743 mmHg 85%
    14:00 +18°C° 0.2 mm 4 mps 743 mmHg 85%
    15:00 +18°C° 0.2 mm 4 mps 743 mmHg 85%
    16:00 +17°C° 0.2 mm 5 mps 744 mmHg 85%
    17:00 +15°C° 0.2 mm 5 mps 744 mmHg 87%
    18:00 +14°C° 0.2 mm 6 mps 745 mmHg 89%
    19:00 +13°C° 0.2 mm 6 mps 745 mmHg 91%
    20:00 +11°C° 0.2 mm 6 mps 746 mmHg 91%
    21:00 +12°C° 0.2 mm 5 mps 746 mmHg 92%
    22:00 +10°C° 0.2 mm 5 mps 747 mmHg 92%
    23:00 +10°C° 0.1 mm 5 mps 747 mmHg 91%

    Day after tomorrow, 29 May, Wednesday

    Time Temperature Precipitation Wind Pressure Humidity
    00:00 +9°C° 0.1 mm 5 mps 748 mmHg 90%
    01:00 +9°C° 0.1 mm 5 mps 748 mmHg 89%
    02:00 +8°C° 0 mm 5 mps 749 mmHg 89%
    03:00 +8°C° 0 mm 4 mps 749 mmHg 88%
    04:00 +7°C° 0 mm 4 mps 750 mmHg 88%
    05:00 +8°C° 0 mm 4 mps 750 mmHg 84%
    06:00 +9°C° 0 mm 5 mps 751 mmHg 80%
    07:00 +10°C° 0 mm 5 mps 751 mmHg 76%
    08:00 +12°C° 0 mm 5 mps 752 mmHg 71%
    09:00 +13°C° 0 mm 5 mps 752 mmHg 67%
    10:00 +14°C° 0 mm 4 mps 753 mmHg 62%
    11:00 +15°C° 0 mm 4 mps 753 mmHg 59%
    12:00 +17°C° 0 mm 4 mps 753 mmHg 56%
    13:00 +18°C° 0 mm 4 mps 753 mmHg 52%
    14:00 +18°C° 0 mm 4 mps 753 mmHg 53%
    15:00 +18°C° 0 mm 4 mps 754 mmHg 53%
    16:00 +18°C° 0 mm 4 mps 754 mmHg 54%
    17:00 +16°C° 0 mm 3 mps 754 mmHg 60%
    18:00 +14°C° 0 mm 3 mps 754 mmHg 66%
    19:00 +14°C° 0 mm 2 mps 754 mmHg 73%
    20:00 +13°C° 0 mm 2 mps 755 mmHg 75%
    21:00 +10°C° 0 mm 2 mps 755 mmHg 78%
    22:00 +9°C° 0 mm 3 mps 756 mmHg 81%
    23:00 +8°C° 0 mm 2 mps 756 mmHg 78%

    30 May, Thursday

    Time Temperature Precipitation Wind Pressure Humidity
    00:00 +7°C° 0 mm 2 mps 756 mmHg 75%
    01:00 +7°C° 0 mm 2 mps 756 mmHg 72%
    02:00 +6°C° 0 mm 2 mps 756 mmHg 72%
    03:00 +6°C° 0 mm 2 mps 756 mmHg 72%
    04:00 +6°C° 0 mm 1 mps 756 mmHg 72%
    05:00 +8°C° 0 mm 1 mps 756 mmHg 67%
    06:00 +10°C° 0 mm 1 mps 756 mmHg 63%
    07:00 +11°C° 0 mm 1 mps 757 mmHg 58%
    08:00 +13°C° 0 mm 1 mps 756 mmHg 55%
    09:00 +15°C° 0 mm 1 mps 756 mmHg 53%
    10:00 +16°C° 0 mm 0 mps 756 mmHg 50%
    11:00 +19°C° 0 mm 1 mps 756 mmHg 48%
    12:00 +20°C° 0 mm 1 mps 756 mmHg 46%
    13:00 +21°C° 0 mm 1 mps 756 mmHg 45%
    14:00 +21°C° 0 mm 1 mps 756 mmHg 45%
    15:00 +21°C° 0 mm 1 mps 755 mmHg 46%
    16:00 +21°C° 0 mm 1 mps 755 mmHg 47%
    17:00 +20°C° 0 mm 1 mps 755 mmHg 53%
    18:00 +19°C° 0 mm 1 mps 755 mmHg 59%
    19:00 +18°C° 0 mm 1 mps 755 mmHg 66%
    20:00 +15°C° 0 mm 2 mps 755 mmHg 67%
    21:00 +14°C° 0 mm 2 mps 756 mmHg 69%
    22:00 +12°C° 0 mm 3 mps 756 mmHg 71%
    23:00 +11°C° 0 mm 3 mps 755 mmHg 72%

    31 May, Friday

    Time Temperature Precipitation Wind Pressure Humidity
    00:00 +11°C° 0 mm 3 mps 755 mmHg 72%
    01:00 +10°C° 0 mm 2 mps 755 mmHg 73%
    02:00 +10°C° 0 mm 2 mps 755 mmHg 74%
    03:00 +10°C° 0 mm 2 mps 755 mmHg 76%
    04:00 +10°C° 0 mm 2 mps 754 mmHg 77%
    05:00 +13°C° 0 mm 2 mps 754 mmHg 74%
    06:00 +13°C° 0 mm 3 mps 754 mmHg 71%
    07:00 +16°C° 0 mm 3 mps 754 mmHg 68%
    08:00 +18°C° 0 mm 3 mps 754 mmHg 65%
    09:00 +20°C° 0 mm 3 mps 753 mmHg 62%
    10:00 +21°C° 0 mm 3 mps 753 mmHg 58%
    11:00 +22°C° 0 mm 3 mps 753 mmHg 58%
    12:00 +24°C° 0 mm 3 mps 752 mmHg 57%
    13:00 +24°C° 0 mm 3 mps 752 mmHg 56%
    14:00 +24°C° 0.7 mm 3 mps 752 mmHg 60%
    15:00 +22°C° 0.7 mm 3 mps 752 mmHg 65%
    16:00 +22°C° 0.7 mm 3 mps 752 mmHg 69%
    17:00 +21°C° 1.3 mm 3 mps 752 mmHg 76%
    18:00 +19°C° 1.3 mm 3 mps 752 mmHg 83%
    19:00 +18°C° 1.3 mm 4 mps 752 mmHg 89%
    20:00 +17°C° 0.4 mm 4 mps 752 mmHg 91%
    21:00 +15°C° 0.4 mm 4 mps 753 mmHg 93%
    22:00 +15°C° 0.4 mm 4 mps 753 mmHg 95%
    23:00 +14°C° 0.2 mm 5 mps 753 mmHg 95%

    1 June, Saturday

    Time Temperature Precipitation Wind Pressure Humidity
    00:00 +13°C° 0.2 mm 5 mps 754 mmHg 95%
    01:00 +13°C° 0.2 mm 5 mps 754 mmHg 95%
    02:00 +12°C° 0.1 mm 5 mps 754 mmHg 94%
    03:00 +11°C° 0.1 mm 6 mps 755 mmHg 94%
    04:00 +10°C° 0.1 mm 6 mps 755 mmHg 93%
    05:00 +10°C° 0 mm 6 mps 756 mmHg 92%
    06:00 +9°C° 0 mm 6 mps 756 mmHg 91%
    07:00 +9°C° 0 mm 6 mps 757 mmHg 89%
    08:00 +10°C° 0 mm 6 mps 757 mmHg 82%
    09:00 +13°C° 0 mm 6 mps 757 mmHg 75%
    10:00 +14°C° 0 mm 6 mps 758 mmHg 68%
    11:00 +15°C° 0 mm 7 mps 758 mmHg 63%
    12:00 +16°C° 0 mm 7 mps 758 mmHg 57%
    13:00 +17°C° 0 mm 7 mps 758 mmHg 51%
    14:00 +16°C° 0 mm 7 mps 758 mmHg 51%
    15:00 +16°C° 0 mm 7 mps 758 mmHg 50%
    16:00 +16°C° 0 mm 7 mps 758 mmHg 50%
    17:00 +14°C° 0 mm 6 mps 759 mmHg 54%
    18:00 +13°C° 0 mm 6 mps 759 mmHg 58%
    19:00 +10°C° 0 mm 5 mps 759 mmHg 62%
    20:00 +9°C° 0 mm 5 mps 760 mmHg 64%
    21:00 +8°C° 0 mm 5 mps 760 mmHg 66%
    22:00 +6°C° 0 mm 4 mps 760 mmHg 67%
    23:00 +6°C° 0 mm 4 mps 760 mmHg 68%
    Show more